INTELSAT 33E DEB, 62001

Orbit data source: Space-Track

INTELSAT 33E DEB, 62001 is space debris in GEO originally from a launch on Wed, 24 Aug 2016 UTC launched from the French Guiana (FRGUI). Debris objects in space refer to the collection of defunct objects orbiting the Earth. Examples of debris include non-operational satellites, rocket bodies, and fragments generated from explosions, collisions, or faulty payload assembly.

Not visible in the next 10 days
Identifier
62001, 2016-053T
Orbit
GEO
Country
Flag of USUS / ITSO
Related business
Manufacturer
Boeing/ES
Mission
Spacecraft
Bus & Motor
Unknown
Mass
Unknown
Launch date (UTC)
2016-08-24 (10 years ago)
Launch vehicle
Unknown
Launch site
French Guiana (FRGUI)
Object type
Payload
Rocket body
Debris
Shape & HBR
Unknown shape, 1.1 m
Radar Cross Section
RCS unknown

Expand to show TLE details & history
Last TLE update: 1 day ago

TLE from 1 day ago
0 INTELSAT 33E DEB
1 62001U 16053T   26120.43229304  .00000118  00000-0  00000+0 0  9991
2 62001   1.3151  65.4522 0067243 341.8781  17.6925  1.00203035  5605
Epoch: 2026-04-30T10:22Z
TLE epoch observation values (Epoch: 2026-04-30T10:22:30.118Z)
Latitude
-0.00001°
Longitude
51.25594°
Altitude
35,534.118 km
Speed
3.094 km/s
True Right ascension
04h 21m 02s
True Declination
0° 00' 00"
Sunlit
Object was in daylight at epoch
Visualization orbit readout
Latitude
Unknown
Longitude
Unknown
Altitude
Unknown
Speed
Unknown
Apparent Right ascension
Unknown
Apparent Declination
Unknown
Sunlit
N/A
Visualization observer readout
Local Sidereal Time
02:24:19
Azimuth
Unknown
Elevation
Unknown
Doppler factor
Unknown
Orbital elements
Apogee altitude
36,090.613 km
Perigee altitude
35,523.283 km
Semi-major axis
42,185.085 km
Eccentricity
0.00672
Inclination
1.3151°
RAAN
65.4522°
Arg. of periapsis
341.8781°
True anomaly
17.92857°
Mean anomaly
17.6925°
Eccentric anomaly
17.81034°
Mean motion
0.2505 °/min
Orbital period
1,437.14 mins
BSTAR
0
Loading maneuver chart data...
Computing Atmospheric mass density...
Loading historical data...
Loading historical data...
Loading historical data...
Loading historical data...
Loading historical data...
Loading historical data...
Loading historical data...

Documentation

Showing up to 5 results
|